FW0788 Weather Reports


Display with metric or nautical units.
time (UTC)temp
F
wind
direction
speed
MPH
gust
MPH
rain 1hr
in
rain 24hr
in
rain mn
in
humidity
%
barometer
mb
20220926041033 56 242 2.0 6.0 0.00 0.00 0.00 72 1013.5
20220926040534 56 117 2.0 5.0 0.00 0.00 0.00 72 1013.5
20220926040040 57 184 2.0 6.0 0.00 0.00 0.00 71 1013.4
20220926035532 57 234 1.0 6.0 0.00 0.00 0.00 70 1013.4
20220926035032 57 135 1.0 7.0 0.00 0.00 0.00 70 1013.5
20220926034540 57 331 3.0 9.0 0.00 0.00 0.00 68 1013.4
20220926034031 57 149 2.0 9.0 0.00 0.00 0.00 67 1013.5
20220926033534 57 223 1.0 7.0 0.00 0.00 0.00 66 1013.6
20220926033054 57 218 4.0 7.0 0.00 0.00 0.00 65 1013.6
20220926032530 57 180 2.0 6.0 0.00 0.00 0.00 66 1013.6
20220926032030 57 232 1.0 6.0 0.00 0.00 0.00 65 1013.6
20220926031532 57 219 1.0 6.0 0.00 0.00 0.00 66 1013.7
20220926031029 57 189 2.0 6.0 0.00 0.00 0.00 67 1013.7
20220926030529 56 222 2.0 6.0 0.00 0.00 0.00 66 1013.7
20220926030028 56 148 1.0 5.0 0.00 0.00 0.00 68 1013.8
20220926025527 56 281 2.0 6.0 0.00 0.00 0.00 69 1013.7
20220926025027 55 227 1.0 6.0 0.00 0.00 0.00 70 1013.9
20220926024527 55 240 2.0 6.0 0.00 0.00 0.00 69 1013.9
20220926024026 55 236 1.0 7.0 0.00 0.00 0.00 70 1014.0
20220926023528 55 271 2.0 6.0 0.00 0.00 0.00 70 1014.0
20220926023103 55 275 2.0 7.0 0.00 0.00 0.00 69 1014.1
20220926022525 55 249 2.0 7.0 0.00 0.00 0.00 71 1014.2
20220926022029 56 249 1.0 5.0 0.00 0.00 0.00 73 1014.2
20220926021527 56 244 2.0 5.0 0.00 0.00 0.00 73 1014.3
20220926021024 56 254 1.0 5.0 0.00 0.00 0.00 73 1014.3
20220926020523 56 144 2.0 5.0 0.00 0.00 0.00 72 1014.3
20220926020023 56 271 1.0 6.0 0.00 0.00 0.00 71 1014.3
20220926015522 57 219 2.0 5.0 0.00 0.00 0.00 70 1014.3
20220926015023 57 263 2.0 8.0 0.00 0.00 0.00 69 1014.3
20220926014530 57 263 3.0 8.0 0.00 0.00 0.00 68 1014.4
20220926014022 57 258 2.0 7.0 0.00 0.00 0.00 69 1014.3
20220926013522 57 158 1.0 7.0 0.00 0.00 0.00 69 1014.3
20220926013023 57 176 2.0 6.0 0.00 0.00 0.00 69 1014.3
20220926012521 57 238 2.0 5.0 0.00 0.00 0.00 68 1014.4
20220926012021 58 185 0.0 4.0 0.00 0.00 0.00 69 1014.4
20220926011521 57 143 1.0 4.0 0.00 0.00 0.00 68 1014.5
20220926011021 58 157 0.0 7.0 0.00 0.00 0.00 68 1014.5
20220926010521 58 225 3.0 7.0 0.00 0.00 0.00 67 1014.5
20220926010020 58 70 1.0 8.0 0.00 0.00 0.00 67 1014.6
20220926005521 58 167 3.0 9.0 0.00 0.00 0.00 68 1014.7
20220926005017 57 262 1.0 6.0 0.00 0.00 0.00 69 1014.7
20220926004519 57 239 1.0 6.0 0.00 0.00 0.00 73 1014.8
20220926004018 56 183 2.0 7.0 0.00 0.00 0.00 75 1014.8
20220926003515 55 183 3.0 7.0 0.00 0.00 0.00 77 1014.9
20220926003012 55 312 3.0 5.0 0.00 0.00 0.00 79 1014.9
20220926002511 54 191 1.0 3.0 0.00 0.00 0.00 80 1015.0
20220926002110 54 236 0.0 4.0 0.00 0.00 0.00 80 1014.9
20220926001510 54 285 1.0 3.0 0.00 0.00 0.00 80 1015.0
20220926001009 54 292 1.0 4.0 0.00 0.00 0.00 81 1015.0
20220926000515 53 292 1.0 4.0 0.00 0.00 0.00 80 1015.0
20220926000007 53 278 1.0 3.0 0.00 0.00 0.00 81 1015.0
20220925235505 52 279 0.0 4.0 0.00 0.00 0.00 81 1015.0
20220925235004 52 289 2.0 4.0 0.00 0.00 0.00 82 1015.1
20220925234502 51 288 0.0 3.0 0.00 0.00 0.00 82 1015.1
20220925234001 51 288 1.0 3.0 0.00 0.00 0.00 83 1015.2
20220925233600 51 288 1.0 3.0 0.00 0.00 0.00 84 1015.2
20220925233101 50 288 0.0 3.0 0.00 0.00 0.00 85 1015.3
20220925232558 50 288 0.0 3.0 0.00 0.00 0.00 85 1015.2
20220925232056 50 290 1.0 3.0 0.00 0.00 0.00 86 1015.3
20220925231650 49 290 1.0 2.0 0.00 0.00 0.00 87 1015.2
20220925231058 49 290 1.0 3.0 0.00 0.00 0.00 88 1015.2
20220925230555 49 290 0.0 3.0 0.00 0.00 0.00 89 1015.1
20220925230053 49 144 0.0 0.0 0.00 0.00 0.00 90 1015.1
20220925225551 48 89 0.0 0.0 0.00 0.00 0.00 90 1015.1
20220925225054 48 89 0.0 0.0 0.00 0.00 0.00 91 1015.0
20220925224549 48 89 0.0 0.0 0.00 0.00 0.00 92 1015.1
20220925224047 47 89 0.0 0.0 0.00 0.00 0.00 92 1015.2
20220925223546 47 89 0.0 0.0 0.00 0.00 0.00 93 1015.1
20220925223050 47 89 0.0 0.0 0.00 0.00 0.00 93 1015.1
20220925222547 46 90 0.0 0.0 0.00 0.00 0.00 93 1015.2
20220925222509 46 90 0.0 0.0 0.00 0.00 0.00 94 1015.2
20220925222043 46 90 0.0 0.0 0.00 0.00 0.00 94 1015.2
20220925221604 46 90 0.0 0.0 0.00 0.00 0.00 95 1015.2
20220925221041 46 90 0.0 0.0 0.00 0.00 0.00 95 1015.3
20220925220540 45 90 0.0 0.0 0.00 0.00 0.00 95 1015.3
20220925220039 45 90 0.0 0.0 0.00 0.00 0.00 95 1015.4
20220925215545 45 90 0.0 2.0 0.00 0.00 0.00 95 1015.3
20220925215040 44 90 0.0 2.0 0.00 0.00 0.00 95 1015.3
20220925214538 44 90 0.0 0.0 0.00 0.00 0.00 95 1015.2
20220925214037 43 90 0.0 0.0 0.00 0.00 0.00 95 1015.2
20220925213533 42 90 0.0 0.0 0.00 0.00 0.00 95 1015.2
20220925213035 41 90 0.0 0.0 0.00 0.00 0.00 95 1015.3
20220925212533 41 90 0.0 0.0 0.00 0.00 0.00 95 1015.2
20220925212029 41 90 0.0 0.0 0.00 0.00 0.00 95 1015.2
20220925211528 40 90 0.0 0.0 0.00 0.00 0.00 95 1015.2
20220925211028 40 90 0.0 0.0 0.00 0.00 0.00 95 1015.2
20220925210528 39 90 0.0 0.0 0.00 0.00 0.00 95 1015.1
20220925210033 39 90 0.0 0.0 0.00 0.00 0.00 95 1015.1
20220925205527 39 90 0.0 0.0 0.00 0.00 0.00 94 1015.2
20220925205027 38 90 0.0 0.0 0.00 0.00 0.00 94 1015.2
20220925204539 38 90 0.0 0.0 0.00 0.00 0.00 94 1015.2
20220925204028 38 90 0.0 0.0 0.00 0.00 0.00 94 1015.2
20220925203522 37 90 0.0 0.0 0.00 0.00 0.00 94 1015.1
20220925203025 37 90 0.0 0.0 0.00 0.00 0.00 94 1015.1
20220925202520 37 90 0.0 0.0 0.00 0.00 0.00 94 1015.2
20220925202019 37 90 0.0 0.0 0.00 0.00 0.00 94 1015.2
20220925201534 37 90 0.0 0.0 0.00 0.00 0.00 94 1015.1
20220925201020 37 90 0.0 0.0 0.00 0.00 0.00 93 1015.0
20220925200522 37 90 0.0 0.0 0.00 0.00 0.00 93 1015.1
20220925200016 37 90 0.0 0.0 0.00 0.00 0.00 93 1015.0
20220925195515 37 90 0.0 0.0 0.00 0.00 0.00 93 1015.0
20220925195015 37 90 0.0 0.0 0.00 0.00 0.00 93 1014.9
20220925194514 37 90 0.0 0.0 0.00 0.00 0.00 93 1014.9
20220925194013 37 90 0.0 0.0 0.00 0.00 0.00 93 1014.8
20220925193516 38 90 0.0 0.0 0.00 0.00 0.00 93 1014.8
20220925193034 38 90 0.0 0.0 0.00 0.00 0.00 93 1014.8
20220925192515 38 90 0.0 0.0 0.00 0.00 0.00 93 1014.8
20220925192010 38 90 0.0 0.0 0.00 0.00 0.00 93 1014.8
20220925191510 38 90 0.0 0.0 0.00 0.00 0.00 93 1014.7
20220925191010 38 90 0.0 0.0 0.00 0.00 0.00 93 1014.7
20220925190511 38 90 0.0 0.0 0.00 0.00 0.00 93 1014.7
20220925190018 39 90 0.0 0.0 0.00 0.00 0.00 93 1014.7
20220925185509 39 90 0.0 0.0 0.00 0.00 0.00 93 1014.5
20220925185011 39 90 0.0 0.0 0.00 0.00 0.00 93 1014.6
20220925184505 39 90 0.0 0.0 0.00 0.00 0.00 93 1014.6
20220925184006 39 90 0.0 0.0 0.00 0.00 0.00 93 1014.6
20220925183507 39 90 0.0 0.0 0.00 0.00 0.00 93 1014.5
20220925183005 39 90 0.0 0.0 0.00 0.00 0.00 93 1014.4
20220925182505 39 90 0.0 0.0 0.00 0.00 0.00 93 1014.3
20220925182004 39 90 0.0 0.0 0.00 0.00 0.00 93 1014.4
20220925181508 39 90 0.0 0.0 0.00 0.00 0.00 93 1014.4
20220925181003 39 90 0.0 0.0 0.00 0.00 0.00 93 1014.3
20220925180505 39 90 0.0 0.0 0.00 0.00 0.00 93 1014.3
20220925180002 39 90 0.0 0.0 0.00 0.00 0.00 93 1014.3
20220925175502 39 90 0.0 0.0 0.00 0.00 0.00 93 1014.3
20220925175005 39 90 0.0 0.0 0.00 0.00 0.00 93 1014.3
20220925174501 39 90 0.0 0.0 0.00 0.00 0.00 92 1014.4
20220925174003 39 90 0.0 0.0 0.00 0.00 0.00 92 1014.4
20220925173601 39 90 0.0 0.0 0.00 0.00 0.00 92 1014.3
20220925173100 39 90 0.0 0.0 0.00 0.00 0.00 92 1014.4
20220925172559 39 90 0.0 0.0 0.00 0.00 0.00 92 1014.4
20220925172102 40 90 0.0 0.0 0.00 0.00 0.00 92 1014.4
20220925171605 40 90 0.0 0.0 0.00 0.00 0.00 92 1014.5
20220925171101 40 90 0.0 0.0 0.00 0.00 0.00 92 1014.5
20220925170557 39 90 0.0 0.0 0.00 0.00 0.00 92 1014.4
20220925170057 39 90 0.0 0.0 0.00 0.00 0.00 92 1014.4
20220925165601 39 90 0.0 0.0 0.00 0.00 0.00 92 1014.4
20220925165057 39 90 0.0 0.0 0.00 0.00 0.00 92 1014.4
20220925164600 39 90 0.0 0.0 0.00 0.00 0.00 91 1014.4
20220925164055 39 90 0.0 0.0 0.00 0.00 0.00 91 1014.4
20220925163555 39 90 0.0 0.0 0.00 0.00 0.00 91 1014.3
20220925163054 39 90 0.0 0.0 0.00 0.00 0.00 91 1014.4
20220925162552 39 90 0.0 0.0 0.00 0.00 0.00 91 1014.4
20220925162052 39 90 0.0 0.0 0.00 0.00 0.00 91 1014.6
20220925161558 39 90 0.0 0.0 0.00 0.00 0.00 90 1014.6
20220925161052 39 90 0.0 0.0 0.00 0.00 0.00 90 1014.6
20220925160552 39 90 0.0 0.0 0.00 0.00 0.00 90 1014.7
20220925160049 39 90 0.0 0.0 0.00 0.00 0.00 89 1014.7
20220925155547 40 90 0.0 0.0 0.00 0.00 0.00 89 1014.7
20220925155049 40 90 0.0 0.0 0.00 0.00 0.00 89 1014.7
20220925154547 40 90 0.0 0.0 0.00 0.00 0.00 89 1014.8
20220925154044 40 90 0.0 0.0 0.00 0.00 0.00 88 1014.8
20220925153548 41 90 0.0 0.0 0.00 0.00 0.00 88 1014.8
20220925153059 41 90 0.0 0.0 0.00 0.00 0.00 87 1014.9
20220925152540 41 90 0.0 1.0 0.00 0.00 0.00 87 1014.8
20220925152040 42 90 0.0 2.0 0.00 0.00 0.00 87 1014.9
20220925151639 42 90 0.0 2.0 0.00 0.00 0.00 86 1015.0
20220925151039 43 90 0.0 2.0 0.00 0.00 0.00 85 1015.0
20220925150536 43 90 0.0 2.0 0.00 0.00 0.00 84 1015.0
20220925150045 44 90 0.0 2.0 0.00 0.00 0.00 83 1015.0
20220925145532 45 90 1.0 3.0 0.00 0.00 0.00 83 1015.0
20220925145039 45 98 0.0 3.0 0.00 0.00 0.00 82 1015.0
20220925144553 46 98 1.0 3.0 0.00 0.00 0.00 81 1015.0
20220925144029 47 115 0.0 4.0 0.00 0.00 0.00 81 1015.0
20220925143528 47 124 0.0 6.0 0.00 0.00 0.00 81 1015.0
20220925143027 47 136 2.0 8.0 0.00 0.00 0.00 82 1014.9
20220925142526 47 94 1.0 8.0 0.00 0.00 0.00 83 1015.0
20220925142024 46 94 2.0 8.0 0.00 0.00 0.00 84 1014.9
20220925141528 46 126 1.0 4.0 0.00 0.00 0.00 84 1014.9
20220925141023 46 134 0.0 4.0 0.00 0.00 0.00 85 1014.9
20220925140520 46 111 1.0 3.0 0.00 0.00 0.00 85 1014.8
20220925140018 46 113 0.0 3.0 0.00 0.00 0.00 86 1014.9
20220925135518 46 98 0.0 3.0 0.00 0.00 0.00 87 1014.8
20220925135022 46 98 1.0 6.0 0.00 0.00 0.00 89 1014.8
20220925134528 45 97 1.0 6.0 0.00 0.00 0.00 91 1014.8
20220925134021 45 115 0.0 5.0 0.00 0.00 0.00 92 1014.9
20220925133520 44 108 1.0 10.0 0.00 0.00 0.00 92 1014.9
20220925133018 44 138 0.0 3.0 0.00 0.00 0.00 93 1015.0
20220925132523 43 103 0.0 3.0 0.00 0.00 0.00 93 1014.9
20220925132017 43 212 0.0 0.0 0.00 0.00 0.00 93 1014.9
20220925131542 43 212 0.0 0.0 0.00 0.00 0.00 93 1015.0
20220925131019 43 212 0.0 0.0 0.00 0.00 0.00 93 1015.1
20220925130519 42 212 0.0 0.0 0.00 0.00 0.00 93 1015.0
20220925130017 42 212 0.0 0.0 0.00 0.00 0.00 92 1015.0
20220925125523 42 212 0.0 0.0 0.00 0.00 0.00 92 1015.1
20220925125017 42 212 0.0 0.0 0.00 0.00 0.00 92 1015.0
20220925124521 42 212 0.0 0.0 0.00 0.00 0.00 92 1015.0
20220925124015 42 212 0.0 0.0 0.00 0.00 0.00 92 1015.0
20220925123516 42 212 0.0 0.0 0.00 0.00 0.00 92 1014.9
20220925123016 42 212 0.0 0.0 0.00 0.00 0.00 92 1014.9
20220925122519 42 212 0.0 0.0 0.00 0.00 0.00 92 1014.9
20220925122016 42 212 0.0 0.0 0.00 0.00 0.00 92 1014.9
20220925121515 43 212 0.0 0.0 0.00 0.00 0.00 92 1015.0
20220925121015 43 212 0.0 0.0 0.00 0.00 0.00 92 1014.9
20220925120524 42 212 0.0 0.0 0.00 0.00 0.00 91 1014.9
20220925120018 43 212 0.0 0.0 0.00 0.00 0.00 92 1014.8
20220925115522 44 212 0.0 0.0 0.00 0.00 0.00 93 1014.7
20220925115013 44 212 0.0 0.0 0.00 0.00 0.00 93 1014.7
20220925114521 43 212 0.0 0.0 0.00 0.00 0.00 93 1014.8
20220925114013 43 212 0.0 0.0 0.00 0.00 0.00 93 1014.8
20220925113513 42 212 0.0 0.0 0.00 0.00 0.00 92 1014.8
20220925113043 42 212 0.0 0.0 0.00 0.00 0.00 92 1014.8
20220925112512 42 212 0.0 0.0 0.00 0.00 0.00 91 1014.9
20220925112012 42 212 0.0 0.0 0.00 0.00 0.00 91 1014.8
20220925111512 42 212 0.0 0.0 0.00 0.00 0.00 91 1014.7
20220925111014 42 212 0.0 0.0 0.00 0.00 0.00 91 1014.8
20220925110512 42 212 0.0 0.0 0.00 0.00 0.00 91 1014.7
20220925110014 42 212 0.0 0.0 0.00 0.00 0.00 90 1014.6
20220925105511 42 212 0.0 0.0 0.00 0.00 0.00 90 1014.6
20220925105011 42 212 0.0 0.0 0.00 0.00 0.00 90 1014.6
20220925104521 43 212 0.0 0.0 0.00 0.00 0.00 90 1014.5
20220925104014 43 212 0.0 0.0 0.00 0.00 0.00 90 1014.5
20220925103510 43 212 0.0 0.0 0.00 0.00 0.00 90 1014.5
20220925103013 43 212 0.0 0.0 0.00 0.00 0.00 89 1014.5
20220925102510 44 212 0.0 0.0 0.00 0.00 0.00 89 1014.4
20220925102010 44 212 0.0 0.0 0.00 0.00 0.00 89 1014.4
20220925101511 44 212 0.0 0.0 0.00 0.00 0.00 88 1014.3
20220925101010 44 212 0.0 0.0 0.00 0.00 0.00 88 1014.2
20220925100513 45 212 0.0 0.0 0.00 0.00 0.00 87 1014.2
20220925100019 45 212 0.0 0.0 0.00 0.00 0.00 87 1014.2
20220925095514 45 212 0.0 0.0 0.00 0.00 0.00 86 1014.2
20220925095009 46 212 0.0 0.0 0.00 0.00 0.00 86 1014.1
20220925094512 46 212 0.0 0.0 0.00 0.00 0.00 85 1014.1
20220925094009 47 212 0.0 0.0 0.00 0.00 0.00 85 1014.0
20220925093509 47 212 0.0 0.0 0.00 0.00 0.00 84 1014.0
20220925093009 47 212 0.0 0.0 0.00 0.00 0.00 84 1013.9
20220925092508 48 213 0.0 0.0 0.00 0.00 0.00 83 1013.9
20220925092008 48 213 0.0 0.0 0.00 0.00 0.00 83 1013.9
20220925091508 48 213 0.0 0.0 0.00 0.00 0.00 82 1013.9
20220925091008 49 213 0.0 0.0 0.00 0.00 0.00 82 1013.9
20220925090508 49 150 0.0 0.0 0.00 0.00 0.00 81 1013.8
20220925090021 49 149 0.0 0.0 0.00 0.00 0.00 80 1013.8
20220925085507 49 149 0.0 0.0 0.00 0.00 0.00 80 1013.7
20220925085007 50 149 0.0 0.0 0.00 0.00 0.00 79 1013.6
20220925084508 50 149 0.0 0.0 0.00 0.00 0.00 78 1013.6
20220925084007 50 149 0.0 4.0 0.00 0.00 0.00 78 1013.5
20220925083509 50 194 0.0 4.0 0.00 0.00 0.00 78 1013.4
20220925083008 50 161 0.0 3.0 0.00 0.00 0.00 78 1013.4
20220925082507 50 143 0.0 4.0 0.00 0.00 0.00 77 1013.4
20220925082011 51 129 1.0 5.0 0.00 0.00 0.00 77 1013.4
20220925081511 51 161 2.0 5.0 0.00 0.00 0.00 76 1013.3
20220925081006 51 102 0.0 3.0 0.00 0.00 0.00 75 1013.3
20220925080507 51 219 1.0 6.0 0.00 0.00 0.00 75 1013.3
20220925080017 51 147 1.0 6.0 0.00 0.00 0.00 76 1013.4
20220925075507 51 148 1.0 6.0 0.00 0.00 0.00 76 1013.2
20220925075005 51 161 0.0 5.0 0.00 0.00 0.00 76 1013.1
20220925074513 52 189 1.0 5.0 0.00 0.00 0.00 77 1013.2
20220925074005 52 134 1.0 3.0 0.00 0.00 0.00 77 1013.2
20220925073510 52 150 0.0 6.0 0.00 0.00 0.00 77 1013.2
20220925073005 52 159 2.0 6.0 0.00 0.00 0.00 77 1013.1
20220925072504 52 75 2.0 7.0 0.00 0.00 0.00 77 1013.1
20220925072005 52 138 2.0 7.0 0.00 0.00 0.00 78 1013.1
20220925071511 52 140 0.0 5.0 0.00 0.00 0.00 78 1012.9
20220925071004 52 140 1.0 6.0 0.00 0.00 0.00 78 1012.9
20220925070507 52 111 2.0 6.0 0.00 0.00 0.00 79 1012.9
20220925070003 52 119 0.0 5.0 0.00 0.00 0.00 79 1012.9
20220925065510 52 202 2.0 7.0 0.00 0.00 0.00 79 1012.9
20220925065003 53 248 1.0 4.0 0.00 0.00 0.00 80 1012.9
20220925064503 53 144 1.0 5.0 0.00 0.00 0.00 80 1012.9
20220925064006 53 144 1.0 4.0 0.00 0.00 0.00 79 1012.9
20220925063503 53 70 1.0 4.0 0.00 0.00 0.00 80 1012.9
20220925063005 53 142 1.0 4.0 0.00 0.00 0.00 79 1012.9
20220925062502 53 231 1.0 6.0 0.00 0.00 0.00 79 1013.0
20220925062005 53 178 1.0 8.0 0.00 0.00 0.00 79 1012.9
20220925061506 53 163 4.0 9.0 0.00 0.00 0.00 78 1012.9
20220925061004 54 122 3.0 8.0 0.00 0.00 0.00 76 1012.9
20220925060503 54 185 3.0 8.0 0.00 0.00 0.00 77 1012.9
20220925060001 54 83 3.0 9.0 0.00 0.00 0.00 77 1012.7
20220925055602 54 123 1.0 5.0 0.00 0.00 0.00 76 1012.6
20220925055106 54 251 2.0 5.0 0.00 0.00 0.00 78 1012.6
20220925054623 53 74 2.0 8.0 0.00 0.00 0.00 80 1012.7
20220925054100 53 94 1.0 7.0 0.00 0.00 0.00 83 1012.7
20220925053559 53 138 1.0 8.0 0.00 0.00 0.00 85 1012.8
20220925053110 52 143 1.0 8.0 0.00 0.00 0.00 86 1012.9
20220925052558 52 118 1.0 9.0 0.00 0.00 0.00 86 1012.8
20220925052100 52 165 2.0 9.0 0.00 0.00 0.00 86 1012.9
20220925051558 53 184 2.0 6.0 0.00 0.00 0.00 87 1012.9
20220925051059 53 169 2.0 6.0 0.00 0.00 0.00 86 1013.1
20220925050559 53 140 1.0 8.0 0.00 0.00 0.00 84 1013.0
20220925050058 54 112 4.0 8.0 0.00 0.00 0.00 83 1013.0
20220925045559 54 197 0.0 9.0 0.00 0.00 0.00 83 1012.9
20220925045056 54 232 4.0 9.0 0.00 0.00 0.00 82 1012.8
20220925044556 54 100 2.0 7.0 0.00 0.00 0.00 82 1012.9
20220925044056 54 162 1.0 7.0 0.00 0.00 0.00 81 1012.9
20220925043556 55 165 1.0 7.0 0.00 0.00 0.00 80 1012.8
20220925043104 55 234 2.0 7.0 0.00 0.00 0.00 80 1012.8
20220925042557 55 123 0.0 8.0 0.00 0.00 0.00 80 1012.7
20220925042054 54 185 2.0 9.0 0.00 0.00 0.00 79 1012.7
20220925041554 54 159 3.0 9.0 0.00 0.00 0.00 80 1012.9